Time,TemperatureF,DewpointF,PressureIn,WindDirection,WindDirectionDegrees,WindSpeedMPH,WindSpeedGustMPH,Humidity,HourlyPrecipIn,Conditions,Clouds,dailyrainin,SoftwareType,DateUTC
2013-05-12 00:00:00,60.2,58.5,29.88,SSW,195,0.0,2.0,94,0.00,RA,,0.00,WeatherDisplay:10.37,2013-05-12 04:00:00,
2013-05-12 00:15:00,60.1,58.3,29.88,SW,220,1.0,7.0,94,0.00,OVC,,0.00,WeatherDisplay:10.37,2013-05-12 04:15:00,
2013-05-12 00:30:00,60.0,58.6,29.88,SW,225,1.0,5.0,95,0.00,BKN,,0.00,WeatherDisplay:10.37,2013-05-12 04:30:00,
2013-05-12 00:45:00,60.0,58.5,29.88,SW,228,1.0,4.0,95,0.00,BKN,,0.00,WeatherDisplay:10.37,2013-05-12 04:45:00,
2013-05-12 01:00:00,60.0,58.6,29.89,SW,228,0.0,3.0,95,0.00,OVC,,0.00,WeatherDisplay:10.37,2013-05-12 05:00:00,
2013-05-12 01:15:00,59.9,58.5,29.89,SW,228,0.0,2.0,95,0.00,OVC,,0.00,WeatherDisplay:10.37,2013-05-12 05:15:00,
2013-05-12 01:30:00,59.9,58.5,29.89,SW,228,0.0,1.0,95,0.01,OVC,,0.01,WeatherDisplay:10.37,2013-05-12 05:30:00,
2013-05-12 01:45:00,59.9,58.5,29.88,SW,228,0.0,1.0,95,0.00,OVC,,0.01,WeatherDisplay:10.37,2013-05-12 05:45:00,
2013-05-12 02:00:00,59.9,58.5,29.88,SW,228,0.0,2.0,95,0.00,OVC,,0.01,WeatherDisplay:10.37,2013-05-12 06:00:00,
2013-05-12 02:15:00,60.0,58.6,29.88,SW,227,1.0,4.0,95,0.00,OVC,,0.01,WeatherDisplay:10.37,2013-05-12 06:15:00,
2013-05-12 02:30:00,60.0,58.9,29.89,West,264,1.0,5.0,96,0.01,OVC,,0.02,WeatherDisplay:10.37,2013-05-12 06:30:00,
2013-05-12 02:45:00,60.0,58.8,29.88,WSW,256,1.0,3.0,96,0.00,OVC,,0.02,WeatherDisplay:10.37,2013-05-12 06:45:00,
2013-05-12 03:00:00,59.9,58.8,29.88,WSW,256,0.0,3.0,96,0.00,OVC,,0.02,WeatherDisplay:10.37,2013-05-12 07:00:00,
2013-05-12 03:15:00,59.8,58.4,29.89,WSW,256,0.0,3.0,95,0.00,OVC,,0.02,WeatherDisplay:10.37,2013-05-12 07:15:00,
2013-05-12 03:30:00,59.7,58.6,29.88,WSW,256,0.0,2.0,96,0.00,OVC,,0.02,WeatherDisplay:10.37,2013-05-12 07:30:00,
2013-05-12 03:45:00,59.1,57.6,29.89,NW,317,3.0,6.0,95,0.00,OVC,,0.02,WeatherDisplay:10.37,2013-05-12 07:45:00,
2013-05-12 04:00:00,57.2,55.5,29.89,NW,319,2.0,9.0,94,0.00,OVC,,0.02,WeatherDisplay:10.37,2013-05-12 08:00:00,
2013-05-12 04:15:00,55.5,52.9,29.89,NW,318,3.0,13.0,91,0.00,OVC,,0.02,WeatherDisplay:10.37,2013-05-12 08:15:00,
2013-05-12 04:30:00,54.3,51.4,29.89,NW,322,1.0,9.0,90,0.00,OVC,,0.02,WeatherDisplay:10.37,2013-05-12 08:30:00,
2013-05-12 04:45:00,54.0,51.4,29.89,NW,320,0.0,3.0,91,0.00,OVC,,0.02,WeatherDisplay:10.37,2013-05-12 08:45:00,
2013-05-12 05:00:00,53.9,51.6,29.90,NW,320,0.0,2.0,92,0.00,OVC,,0.02,WeatherDisplay:10.37,2013-05-12 09:00:00,
2013-05-12 05:15:00,53.6,51.7,29.90,NW,320,0.0,2.0,93,0.00,OVC,,0.02,WeatherDisplay:10.37,2013-05-12 09:15:00,
2013-05-12 05:30:00,53.4,51.4,29.91,NW,320,0.0,1.0,93,0.00,BKN,,0.02,WeatherDisplay:10.37,2013-05-12 09:30:00,
2013-05-12 05:45:00,53.2,51.2,29.91,NW,312,1.0,6.0,93,0.00,BKN,,0.02,WeatherDisplay:10.37,2013-05-12 09:45:00,
2013-05-12 06:00:00,52.2,49.7,29.91,NW,317,2.0,6.0,91,0.00,BKN,,0.02,WeatherDisplay:10.37,2013-05-12 10:00:00,
2013-05-12 06:15:00,51.5,49.0,29.92,NW,317,1.0,4.0,91,0.00,BKN,,0.02,WeatherDisplay:10.37,2013-05-12 10:15:00,
2013-05-12 06:30:00,50.8,48.3,29.92,NW,317,0.0,2.0,91,0.00,SCT,,0.02,WeatherDisplay:10.37,2013-05-12 10:30:00,
2013-05-12 06:45:00,50.4,48.2,29.93,NW,317,0.0,3.0,92,0.00,SCT,,0.02,WeatherDisplay:10.37,2013-05-12 10:45:00,
2013-05-12 07:00:00,50.3,48.1,29.94,NW,316,0.0,5.0,92,0.01,RA,,0.03,WeatherDisplay:10.37,2013-05-12 11:00:00,
2013-05-12 07:15:00,50.4,48.2,29.94,NW,316,0.0,3.0,92,0.00,SCT,,0.03,WeatherDisplay:10.37,2013-05-12 11:15:00,
2013-05-12 07:30:00,50.8,48.5,29.94,NW,316,1.0,3.0,92,0.00,CLR,,0.03,WeatherDisplay:10.37,2013-05-12 11:30:00,
2013-05-12 07:45:00,51.5,49.2,29.95,NW,316,0.0,3.0,92,0.00,CLR,,0.03,WeatherDisplay:10.37,2013-05-12 11:45:00,
2013-05-12 08:00:00,52.8,49.7,29.95,NW,316,1.0,4.0,89,0.00,CLR,,0.03,WeatherDisplay:10.37,2013-05-12 12:00:00,
2013-05-12 08:15:00,54.4,50.3,29.95,NW,317,2.0,5.0,86,0.00,CLR,,0.03,WeatherDisplay:10.37,2013-05-12 12:15:00,
2013-05-12 08:30:00,56.2,50.7,29.95,NW,316,1.0,5.0,82,0.00,CLR,,0.03,WeatherDisplay:10.37,2013-05-12 12:30:00,
2013-05-12 08:45:00,57.9,51.7,29.95,NNW,330,2.0,5.0,80,0.00,CLR,,0.03,WeatherDisplay:10.37,2013-05-12 12:45:00,
2013-05-12 09:00:00,58.9,51.3,29.95,NNW,330,2.0,7.0,76,0.00,CLR,,0.03,WeatherDisplay:10.37,2013-05-12 13:00:00,
2013-05-12 09:15:00,59.8,51.1,29.96,WNW,301,2.0,8.0,73,0.00,CLR,,0.03,WeatherDisplay:10.37,2013-05-12 13:15:00,
2013-05-12 09:30:00,60.1,50.7,29.96,WNW,301,2.0,12.0,71,0.00,CLR,,0.03,WeatherDisplay:10.37,2013-05-12 13:30:00,
2013-05-12 09:45:00,60.7,50.0,29.96,WNW,303,8.0,14.0,68,0.00,CLR,,0.03,WeatherDisplay:10.37,2013-05-12 13:45:00,
2013-05-12 10:00:00,61.4,51.5,29.96,NW,320,2.0,13.0,70,0.00,CLR,,0.03,WeatherDisplay:10.37,2013-05-12 14:00:00,
2013-05-12 10:15:00,60.5,50.7,29.97,NW,315,6.0,12.0,70,0.00,CLR,,0.03,WeatherDisplay:10.37,2013-05-12 14:15:00,
2013-05-12 10:30:00,60.9,49.9,29.97,NW,309,3.0,14.0,67,0.00,BKN,,0.03,WeatherDisplay:10.37,2013-05-12 14:30:00,
2013-05-12 10:45:00,61.8,50.3,29.96,NNW,328,3.0,12.0,66,0.00,BKN,,0.03,WeatherDisplay:10.37,2013-05-12 14:45:00,
2013-05-12 11:00:00,61.8,49.9,29.97,NNW,331,6.0,13.0,65,0.00,BKN,,0.03,WeatherDisplay:10.37,2013-05-12 15:00:00,
2013-05-12 11:15:00,62.1,49.4,29.97,NW,323,7.0,16.0,63,0.00,BKN,,0.03,WeatherDisplay:10.37,2013-05-12 15:15:00,
2013-05-12 11:30:00,62.2,47.7,29.96,NW,306,5.0,12.0,59,0.00,FEW,,0.03,WeatherDisplay:10.37,2013-05-12 15:30:00,
2013-05-12 11:45:00,62.9,47.0,29.97,NNW,331,7.0,15.0,56,0.00,FEW,,0.03,WeatherDisplay:10.37,2013-05-12 15:45:00,
2013-05-12 12:00:00,63.3,47.3,29.97,WNW,290,2.0,12.0,56,0.00,FEW,,0.03,WeatherDisplay:10.37,2013-05-12 16:00:00,
2013-05-12 12:15:00,63.5,47.0,29.97,WNW,301,5.0,12.0,55,0.00,FEW,,0.03,WeatherDisplay:10.37,2013-05-12 16:15:00,
2013-05-12 12:30:00,63.9,48.4,29.97,WNW,293,5.0,12.0,57,0.00,CLR,,0.03,WeatherDisplay:10.37,2013-05-12 16:30:00,
2013-05-12 12:45:00,65.1,47.5,29.97,NW,307,8.0,16.0,53,0.00,CLR,,0.03,WeatherDisplay:10.37,2013-05-12 16:45:00,
2013-05-12 13:00:00,64.4,47.4,29.97,WNW,300,2.0,12.0,54,0.00,CLR,,0.03,WeatherDisplay:10.37,2013-05-12 17:00:00,
2013-05-12 13:15:00,64.9,47.3,29.97,West,262,5.0,12.0,53,0.00,CLR,,0.03,WeatherDisplay:10.37,2013-05-12 17:15:00,
2013-05-12 13:30:00,65.1,46.0,29.97,NW,320,5.0,15.0,50,0.00,FEW,,0.03,WeatherDisplay:10.37,2013-05-12 17:30:00,
2013-05-12 13:45:00,66.2,46.5,29.97,NW,326,2.0,10.0,49,0.00,FEW,,0.03,WeatherDisplay:10.37,2013-05-12 17:45:00,
2013-05-12 14:00:00,67.0,47.7,29.96,WNW,293,5.0,12.0,50,0.00,FEW,,0.03,WeatherDisplay:10.37,2013-05-12 18:00:00,
2013-05-12 14:15:00,66.6,45.7,29.96,West,278,6.0,13.0,47,0.00,FEW,,0.03,WeatherDisplay:10.37,2013-05-12 18:15:00,
2013-05-12 14:30:00,67.4,46.4,29.96,West,281,3.0,12.0,47,0.00,CLR,,0.03,WeatherDisplay:10.37,2013-05-12 18:30:00,
2013-05-12 14:45:00,67.7,45.6,29.96,NW,305,5.0,12.0,45,0.00,CLR,,0.03,WeatherDisplay:10.37,2013-05-12 18:45:00,
2013-05-12 15:00:00,66.0,42.8,29.96,NNW,328,5.0,14.0,43,0.00,CLR,,0.03,WeatherDisplay:10.37,2013-05-12 19:00:00,
2013-05-12 15:15:00,67.1,45.6,29.96,WNW,283,3.0,12.0,46,0.00,CLR,,0.03,WeatherDisplay:10.37,2013-05-12 19:15:00,
2013-05-12 15:30:00,68.0,43.4,29.96,West,281,7.0,15.0,41,0.00,CLR,,0.03,WeatherDisplay:10.37,2013-05-12 19:30:00,
2013-05-12 15:45:00,67.7,45.0,29.96,WNW,296,3.0,9.0,44,0.00,CLR,,0.03,WeatherDisplay:10.37,2013-05-12 19:45:00,
2013-05-12 16:00:00,67.7,44.4,29.96,WNW,299,3.0,12.0,43,0.00,CLR,,0.03,WeatherDisplay:10.37,2013-05-12 20:00:00,
2013-05-12 16:15:00,67.3,42.1,29.95,NW,317,6.0,16.0,40,0.00,CLR,,0.03,WeatherDisplay:10.37,2013-05-12 20:15:00,
2013-05-12 16:30:00,67.1,39.9,29.96,WNW,283,3.0,17.0,37,0.00,FEW,,0.03,WeatherDisplay:10.37,2013-05-12 20:30:00,
2013-05-12 16:45:00,66.9,39.1,29.96,WNW,302,5.0,18.0,36,0.00,FEW,,0.03,WeatherDisplay:10.37,2013-05-12 20:45:00,
2013-05-12 17:00:00,66.1,36.1,29.97,WNW,296,7.0,16.0,33,0.00,FEW,,0.03,WeatherDisplay:10.37,2013-05-12 21:00:00,
2013-05-12 17:15:00,65.9,35.2,29.97,NW,322,7.0,15.0,32,0.00,FEW,,0.03,WeatherDisplay:10.37,2013-05-12 21:15:00,
2013-05-12 17:30:00,65.7,35.8,29.97,NW,324,3.0,18.0,33,0.00,CLR,,0.03,WeatherDisplay:10.37,2013-05-12 21:30:00,
2013-05-12 17:45:00,65.8,35.1,29.97,NW,304,2.0,10.0,32,0.00,CLR,,0.03,WeatherDisplay:10.37,2013-05-12 21:45:00,
2013-05-12 18:00:00,65.7,37.3,29.98,NW,316,3.0,13.0,35,0.00,CLR,,0.03,WeatherDisplay:10.37,2013-05-12 22:00:00,
2013-05-12 18:15:00,65.5,36.3,29.98,NNW,328,3.0,10.0,34,0.00,CLR,,0.03,WeatherDisplay:10.37,2013-05-12 22:15:00,
2013-05-12 18:30:00,64.5,35.5,29.99,NNW,341,2.0,10.0,34,0.00,CLR,,0.03,WeatherDisplay:10.37,2013-05-12 22:30:00,
2013-05-12 18:45:00,64.0,35.1,30.00,NNW,331,6.0,12.0,34,0.00,CLR,,0.03,WeatherDisplay:10.37,2013-05-12 22:45:00,
2013-05-12 19:00:00,63.3,35.2,30.00,NNW,328,5.0,12.0,35,0.00,CLR,,0.03,WeatherDisplay:10.37,2013-05-12 23:00:00,
2013-05-12 19:15:00,62.5,35.2,30.01,NNW,342,2.0,10.0,36,0.00,CLR,,0.03,WeatherDisplay:10.37,2013-05-12 23:15:00,
2013-05-12 19:30:00,61.8,34.5,30.01,NNW,330,2.0,12.0,36,0.00,CLR,,0.03,WeatherDisplay:10.37,2013-05-12 23:30:00,
2013-05-12 19:45:00,61.0,34.5,30.02,NNW,327,6.0,10.0,37,0.00,CLR,,0.03,WeatherDisplay:10.37,2013-05-12 23:45:00,
2013-05-12 20:00:00,60.2,34.5,30.02,NW,319,2.0,6.0,38,0.00,CLR,,0.03,WeatherDisplay:10.37,2013-05-13 00:00:00,
2013-05-12 20:15:00,59.1,34.8,30.02,NW,309,1.0,3.0,40,0.00,CLR,,0.03,WeatherDisplay:10.37,2013-05-13 00:15:00,
2013-05-12 20:30:00,58.0,33.8,30.02,NW,311,1.0,5.0,40,0.00,CLR,,0.03,WeatherDisplay:10.37,2013-05-13 00:30:00,
2013-05-12 20:45:00,57.0,35.3,30.03,NW,311,0.0,3.0,44,0.00,CLR,,0.03,WeatherDisplay:10.37,2013-05-13 00:45:00,
2013-05-12 21:00:00,55.7,35.8,30.03,NW,311,0.0,3.0,47,0.00,CLR,,0.03,WeatherDisplay:10.37,2013-05-13 01:00:00,
2013-05-12 21:15:00,54.5,38.2,30.04,NW,311,0.0,1.0,54,0.00,CLR,,0.03,WeatherDisplay:10.37,2013-05-13 01:15:00,
2013-05-12 21:30:00,53.0,36.3,30.05,NW,311,1.0,3.0,53,0.00,CLR,,0.03,WeatherDisplay:10.37,2013-05-13 01:30:00,
2013-05-12 21:45:00,52.9,34.8,30.05,NNW,330,1.0,4.0,50,0.00,CLR,,0.03,WeatherDisplay:10.37,2013-05-13 01:45:00,
2013-05-12 22:00:00,53.5,34.3,30.06,NNW,340,0.0,5.0,48,0.00,CLR,,0.03,WeatherDisplay:10.37,2013-05-13 02:00:00,
2013-05-12 22:15:00,53.6,33.8,30.06,North,353,0.0,5.0,47,0.00,CLR,,0.03,WeatherDisplay:10.37,2013-05-13 02:15:00,
2013-05-12 22:30:00,53.3,34.1,30.06,North,0,0.0,2.0,48,0.00,CLR,,0.03,WeatherDisplay:10.37,2013-05-13 02:30:00,
2013-05-12 22:45:00,52.9,33.2,30.07,NNW,331,2.0,5.0,47,0.00,CLR,,0.03,WeatherDisplay:10.37,2013-05-13 02:45:00,
2013-05-12 23:00:00,52.9,33.2,30.07,NNW,334,1.0,4.0,47,0.00,CLR,,0.03,WeatherDisplay:10.37,2013-05-13 03:00:00,
2013-05-12 23:15:00,52.5,33.4,30.06,NNW,330,1.0,5.0,48,0.00,CLR,,0.03,WeatherDisplay:10.37,2013-05-13 03:15:00,
2013-05-12 23:30:00,51.9,33.3,30.07,NNW,333,1.0,6.0,49,0.00,CLR,,0.03,WeatherDisplay:10.37,2013-05-13 03:30:00,
2013-05-12 23:45:00,51.2,33.7,30.07,NW,324,0.0,4.0,51,0.00,CLR,,0.03,WeatherDisplay:10.37,2013-05-13 03:45:00,